When you browse on this site, cookies collect data to enhance your experience and personalize the content and advertising you see.
Visit our Privacy Policy to learn more. By continuing to use the site, you agree to this use of cookies and data.
  • en France
  • Liste des pays
  • À 7 jours
  • Température de l'eau
  • Carte météo
  • Widgets météo
  • user-avatar
    Se connecter

    Météo par heure à Jalalabad

    Ce jour, 21 Août, Mercredi

    Heure Température Précipitation Vent Pression Humidité
    00:00 +32°C° 0 mm 1 m/s 706 mmHg 50%
    01:00 +31°C° 0 mm 1 m/s 706 mmHg 52%
    02:00 +29°C° 0 mm 0 m/s 706 mmHg 54%
    03:00 +28°C° 0 mm 0 m/s 706 mmHg 53%
    04:00 +28°C° 0 mm 0 m/s 706 mmHg 53%
    05:00 +28°C° 0 mm 0 m/s 706 mmHg 52%
    06:00 +30°C° 0 mm 1 m/s 706 mmHg 48%
    07:00 +31°C° 0 mm 1 m/s 706 mmHg 43%
    08:00 +32°C° 0 mm 1 m/s 706 mmHg 39%
    09:00 +33°C° 0 mm 1 m/s 707 mmHg 33%
    10:00 +34°C° 0 mm 1 m/s 707 mmHg 27%
    11:00 +35°C° 0 mm 1 m/s 707 mmHg 22%
    12:00 +36°C° 0 mm 1 m/s 707 mmHg 19%
    13:00 +37°C° 0 mm 1 m/s 706 mmHg 17%
    14:00 +39°C° 0 mm 1 m/s 706 mmHg 14%
    15:00 +39°C° 0 mm 1 m/s 706 mmHg 15%
    16:00 +39°C° 0 mm 1 m/s 705 mmHg 15%
    17:00 +39°C° 0 mm 2 m/s 705 mmHg 15%
    18:00 +38°C° 0 mm 2 m/s 705 mmHg 20%
    19:00 +37°C° 0 mm 2 m/s 705 mmHg 25%
    20:00 +36°C° 0 mm 2 m/s 706 mmHg 30%
    21:00 +35°C° 0 mm 2 m/s 706 mmHg 35%
    22:00 +34°C° 0 mm 1 m/s 706 mmHg 39%
    23:00 +33°C° 0 mm 1 m/s 706 mmHg 44%

    Demain, 22 Août, Jeudi

    Heure Température Précipitation Vent Pression Humidité
    00:00 +33°C° 0 mm 1 m/s 706 mmHg 46%
    01:00 +32°C° 0 mm 1 m/s 705 mmHg 48%
    02:00 +30°C° 0 mm 0 m/s 705 mmHg 50%
    03:00 +29°C° 0 mm 0 m/s 705 mmHg 50%
    04:00 +29°C° 0 mm 0 m/s 705 mmHg 51%
    05:00 +28°C° 0 mm 0 m/s 705 mmHg 51%
    06:00 +29°C° 0 mm 0 m/s 706 mmHg 47%
    07:00 +32°C° 0 mm 1 m/s 706 mmHg 42%
    08:00 +33°C° 0 mm 1 m/s 706 mmHg 37%
    09:00 +34°C° 0 mm 1 m/s 706 mmHg 35%
    10:00 +35°C° 0 mm 1 m/s 706 mmHg 32%
    11:00 +36°C° 0 mm 1 m/s 706 mmHg 30%
    12:00 +37°C° 0 mm 1 m/s 706 mmHg 26%
    13:00 +39°C° 0 mm 2 m/s 706 mmHg 23%
    14:00 +40°C° 0 mm 2 m/s 706 mmHg 20%
    15:00 +40°C° 0 mm 3 m/s 706 mmHg 20%
    16:00 +40°C° 0 mm 3 m/s 705 mmHg 20%
    17:00 +41°C° 0 mm 4 m/s 705 mmHg 21%
    18:00 +39°C° 0 mm 3 m/s 705 mmHg 25%
    19:00 +38°C° 0 mm 3 m/s 705 mmHg 29%
    20:00 +37°C° 0 mm 3 m/s 705 mmHg 34%
    21:00 +36°C° 0 mm 2 m/s 706 mmHg 36%
    22:00 +35°C° 0 mm 2 m/s 706 mmHg 39%
    23:00 +35°C° 0 mm 2 m/s 706 mmHg 42%

    Après-demain, 23 Août, Vendredi

    Heure Température Précipitation Vent Pression Humidité
    00:00 +33°C° 0 mm 1 m/s 706 mmHg 44%
    01:00 +33°C° 0 mm 1 m/s 706 mmHg 47%
    02:00 +30°C° 0 mm 0 m/s 706 mmHg 49%
    03:00 +30°C° 0 mm 0 m/s 706 mmHg 50%
    04:00 +30°C° 0 mm 0 m/s 706 mmHg 51%
    05:00 +29°C° 0 mm 0 m/s 706 mmHg 52%
    06:00 +30°C° 0 mm 0 m/s 706 mmHg 49%
    07:00 +32°C° 0 mm 1 m/s 706 mmHg 46%
    08:00 +33°C° 0 mm 1 m/s 706 mmHg 43%
    09:00 +34°C° 0 mm 1 m/s 706 mmHg 41%
    10:00 +35°C° 0 mm 1 m/s 706 mmHg 38%
    11:00 +37°C° 0 mm 2 m/s 706 mmHg 35%
    12:00 +38°C° 0 mm 2 m/s 706 mmHg 32%
    13:00 +39°C° 0 mm 2 m/s 706 mmHg 29%
    14:00 +40°C° 0 mm 2 m/s 705 mmHg 26%
    15:00 +40°C° 0 mm 3 m/s 705 mmHg 25%
    16:00 +40°C° 0 mm 3 m/s 705 mmHg 24%
    17:00 +40°C° 0 mm 3 m/s 705 mmHg 24%
    18:00 +39°C° 0 mm 3 m/s 705 mmHg 28%
    19:00 +38°C° 0 mm 3 m/s 705 mmHg 33%
    20:00 +37°C° 0 mm 3 m/s 705 mmHg 38%
    21:00 +36°C° 0 mm 2 m/s 705 mmHg 40%
    22:00 +36°C° 0 mm 2 m/s 706 mmHg 42%
    23:00 +34°C° 0 mm 1 m/s 706 mmHg 44%

    24 Août, Samedi

    Heure Température Précipitation Vent Pression Humidité
    00:00 +34°C° 0 mm 1 m/s 706 mmHg 46%
    01:00 +33°C° 0 mm 1 m/s 705 mmHg 48%
    02:00 +31°C° 0 mm 0 m/s 705 mmHg 50%
    03:00 +30°C° 0 mm 0 m/s 705 mmHg 51%
    04:00 +30°C° 0 mm 0 m/s 705 mmHg 52%
    05:00 +30°C° 0 mm 0 m/s 705 mmHg 52%
    06:00 +30°C° 0 mm 0 m/s 705 mmHg 48%
    07:00 +31°C° 0 mm 0 m/s 706 mmHg 43%
    08:00 +32°C° 0 mm 0 m/s 706 mmHg 39%
    09:00 +35°C° 0 mm 1 m/s 706 mmHg 37%
    10:00 +36°C° 0 mm 1 m/s 706 mmHg 35%
    11:00 +37°C° 0 mm 1 m/s 706 mmHg 33%
    12:00 +39°C° 0 mm 2 m/s 706 mmHg 30%
    13:00 +40°C° 0 mm 2 m/s 705 mmHg 26%
    14:00 +41°C° 0 mm 2 m/s 705 mmHg 23%
    15:00 +42°C° 0 mm 3 m/s 705 mmHg 23%
    16:00 +42°C° 0 mm 3 m/s 705 mmHg 23%
    17:00 +42°C° 0 mm 4 m/s 704 mmHg 24%
    18:00 +40°C° 0 mm 3 m/s 705 mmHg 27%
    19:00 +39°C° 0 mm 3 m/s 705 mmHg 31%
    20:00 +38°C° 0 mm 2 m/s 705 mmHg 34%
    21:00 +37°C° 0 mm 2 m/s 705 mmHg 37%
    22:00 +37°C° 0 mm 2 m/s 705 mmHg 39%
    23:00 +35°C° 0 mm 1 m/s 705 mmHg 41%

    25 Août, Dimanche

    Heure Température Précipitation Vent Pression Humidité
    00:00 +34°C° 0 mm 1 m/s 705 mmHg 43%
    01:00 +34°C° 0 mm 1 m/s 705 mmHg 46%
    02:00 +31°C° 0 mm 0 m/s 705 mmHg 48%
    03:00 +31°C° 0 mm 0 m/s 705 mmHg 49%
    04:00 +31°C° 0 mm 0 m/s 705 mmHg 50%
    05:00 +30°C° 0 mm 0 m/s 705 mmHg 52%
    06:00 +31°C° 0 mm 0 m/s 705 mmHg 49%
    07:00 +32°C° 0 mm 0 m/s 705 mmHg 46%
    08:00 +32°C° 0 mm 0 m/s 706 mmHg 43%
    09:00 +35°C° 0 mm 1 m/s 706 mmHg 40%
    10:00 +36°C° 0 mm 1 m/s 706 mmHg 37%
    11:00 +38°C° 0 mm 2 m/s 706 mmHg 35%
    12:00 +39°C° 0 mm 2 m/s 706 mmHg 32%
    13:00 +40°C° 0 mm 3 m/s 705 mmHg 29%
    14:00 +42°C° 0 mm 3 m/s 705 mmHg 26%
    15:00 +42°C° 0 mm 3 m/s 705 mmHg 26%
    16:00 +42°C° 0 mm 4 m/s 705 mmHg 26%
    17:00 +42°C° 0 mm 4 m/s 705 mmHg 26%
    18:00 +41°C° 0 mm 4 m/s 705 mmHg 29%
    19:00 +39°C° 0 mm 3 m/s 705 mmHg 32%
    20:00 +38°C° 0 mm 2 m/s 705 mmHg 35%
    21:00 +37°C° 0 mm 2 m/s 706 mmHg 37%
    22:00 +36°C° 0 mm 1 m/s 706 mmHg 39%
    23:00 +35°C° 0 mm 1 m/s 706 mmHg 41%

    26 Août, Lundi

    Heure Température Précipitation Vent Pression Humidité
    00:00 +35°C° 0 mm 1 m/s 706 mmHg 44%
    01:00 +34°C° 0 mm 1 m/s 706 mmHg 46%
    02:00 +32°C° 0 mm 0 m/s 706 mmHg 48%
    03:00 +31°C° 0.1 mm 0 m/s 706 mmHg 49%
    04:00 +31°C° 0.1 mm 0 m/s 706 mmHg 51%
    05:00 +31°C° 0.1 mm 0 m/s 706 mmHg 52%
    06:00 +33°C° 0 mm 1 m/s 706 mmHg 50%
    07:00 +33°C° 0 mm 1 m/s 706 mmHg 48%
    08:00 +35°C° 0 mm 2 m/s 707 mmHg 47%
    09:00 +36°C° 0 mm 2 m/s 707 mmHg 44%
    10:00 +37°C° 0 mm 2 m/s 707 mmHg 42%
    11:00 +38°C° 0 mm 3 m/s 707 mmHg 39%
    12:00 +39°C° 0 mm 3 m/s 707 mmHg 36%
    13:00 +40°C° 0 mm 3 m/s 706 mmHg 33%
    14:00 +41°C° 0 mm 4 m/s 706 mmHg 30%
    15:00 +41°C° 0 mm 4 m/s 706 mmHg 30%
    16:00 +41°C° 0 mm 5 m/s 706 mmHg 31%
    17:00 +41°C° 0 mm 5 m/s 706 mmHg 32%
    18:00 +40°C° 0 mm 4 m/s 706 mmHg 35%
    19:00 +38°C° 0 mm 4 m/s 706 mmHg 39%
    20:00 +37°C° 0 mm 3 m/s 706 mmHg 43%
    21:00 +37°C° 0 mm 3 m/s 706 mmHg 45%
    22:00 +36°C° 0 mm 2 m/s 707 mmHg 48%
    23:00 +36°C° 0 mm 2 m/s 707 mmHg 51%
    Voir plus